Location: Goheenville
(40.9070°N, 79.3720°W)
Time: 22:14:45
(UTC-04:00)

Cosmos 1727 Rocket - Visible Passes

Search period start: 30 August 2014 00:00
Search period end: 09 September 2014 00:00
Orbit: 962 x 996 km, 82.9° (Epoch: 29 August)

Date Brightness Start Highest point End Pass type
(mag) Time Alt. Az. Time Alt. Az. Time Alt. Az.
30 Aug 4.5 20:22:36 10° SSW 20:28:52 70° W 20:35:14 10° N visible
30 Aug 7.3 22:15:03 10° WNW 22:15:32 10° WNW 22:16:02 10° WNW visible
31 Aug 7.3 05:35:59 10° NNE 05:39:21 15° ENE 05:42:42 10° E visible
31 Aug 5.6 20:49:37 10° SW 20:55:26 39° WNW 21:01:20 10° N visible
01 Sep 6.5 06:01:02 10° NNE 06:06:16 27° ENE 06:11:27 10° SE visible
01 Sep 6.6 21:17:30 10° WSW 21:22:13 22° WNW 21:26:58 10° NNW visible
02 Sep 7.3 21:47:14 10° W 21:49:13 11° WNW 21:51:13 10° NW visible
03 Sep 7.3 05:10:14 10° NE 05:13:03 13° ENE 05:15:51 10° E visible
03 Sep 5.5 20:23:16 10° SSW 20:29:13 43° WNW 20:35:13 10° N visible
04 Sep 6.6 05:35:00 10° NNE 05:40:00 24° ENE 05:44:57 10° ESE visible
04 Sep 6.6 20:50:59 10° WSW 20:55:57 24° WNW 21:00:58 10° NNW visible
05 Sep 5.4 06:00:45 10° N 06:06:44 43° ENE 06:12:38 10° SSE visible
05 Sep 7.3 21:20:10 10° W 21:22:55 13° WNW 21:25:40 10° NW visible
06 Sep 7.3 04:44:40 10° NE 04:46:44 12° ENE 04:48:48 10° E visible
06 Sep 5.4 19:56:56 10° SSW 20:02:59 47° WNW 20:09:06 10° N visible
07 Sep 6.6 05:08:59 10° NNE 05:13:44 22° ENE 05:18:25 10° ESE visible
07 Sep 6.5 20:24:30 10° SW 20:29:41 26° WNW 20:34:55 10° NNW visible
08 Sep 5.5 05:34:38 10° N 05:40:30 39° ENE 05:46:16 10° SE visible
08 Sep 7.2 20:53:19 10° W 20:56:37 14° WNW 20:59:55 10° NNW visible
